SR9WXP Weather Reports


time (UTC)temp
F
wind
direction
speed
knots
gust
knots
rain 1hr
in
rain 24hr
in
rain mn
in
humidity
%
barometer
mb
20260506205711 47 172 8.7 19.1 0.00 0.00 0.00 75 849.7
20260506205211 47 174 8.7 13.9 0.00 0.00 0.00 75 849.7
20260506205112 47 172 9.6 18.2 0.00 0.00 0.00 75 849.7
20260506204912 47 173 8.7 18.2 0.00 0.00 0.00 75 849.6
20260506204708 47 168 8.7 13.0 0.00 0.00 0.00 75 849.6
20260506204509 47 161 7.8 13.0 0.00 0.00 0.00 75 849.6
20260506204309 47 176 8.7 13.0 0.00 0.00 0.00 75 849.7
20260506204208 47 176 7.8 13.0 0.00 0.00 0.00 75 849.7
20260506204109 47 174 7.8 11.3 0.00 0.00 0.00 75 849.7
20260506203909 47 173 7.8 13.9 0.00 0.00 0.00 75 849.8
20260506203705 47 176 8.7 13.9 0.00 0.00 0.00 75 849.8
20260506203506 47 180 7.0 11.3 0.00 0.00 0.00 74 849.8
20260506203306 47 165 8.7 13.9 0.00 0.00 0.00 74 849.8
20260506203205 47 159 8.7 15.6 0.00 0.00 0.00 74 849.8
20260506203108 47 158 8.7 15.6 0.00 0.00 0.00 74 849.9
20260506202906 47 166 7.0 10.4 0.00 0.00 0.00 74 849.8
20260506202702 47 169 8.7 16.5 0.00 0.00 0.00 74 849.8
20260506202503 48 167 7.8 12.2 0.00 0.00 0.00 74 849.8
20260506202203 48 169 8.7 13.9 0.00 0.00 0.00 74 849.7
20260506202102 48 176 7.8 13.9 0.00 0.00 0.00 74 849.7
20260506201903 48 173 8.7 13.9 0.00 0.00 0.00 74 849.7
20260506201659 48 167 9.6 24.3 0.00 0.00 0.00 74 849.7
20260506201501 48 160 9.6 24.3 0.00 0.00 0.00 74 849.7
20260506201301 48 162 10.4 15.6 0.00 0.00 0.00 74 849.7
20260506201159 48 163 9.6 14.8 0.00 0.00 0.00 74 849.7
20260506201100 48 163 8.7 15.6 0.00 0.00 0.00 74 849.7
20260506200859 48 162 10.4 15.6 0.00 0.00 0.00 74 849.8
20260506200656 48 171 7.8 13.9 0.00 0.00 0.00 74 849.8
20260506200456 48 169 8.7 14.8 0.00 0.00 0.00 73 849.7
20260506200256 48 179 8.7 13.9 0.00 0.00 0.00 73 849.8
20260506200156 48 173 8.7 13.9 0.00 0.00 0.00 73 849.8
20260506200056 48 176 7.8 13.9 0.00 0.00 0.00 73 849.8
20260506195857 48 173 7.0 13.0 0.00 0.00 0.00 73 849.8
20260506195653 48 178 8.7 15.6 0.00 0.00 0.00 73 849.8
20260506195454 48 175 9.6 16.5 0.00 0.00 0.00 73 849.8
20260506195254 48 171 8.7 16.5 0.00 0.00 0.00 73 849.8
20260506195153 48 169 8.7 13.0 0.00 0.00 0.00 73 849.8
20260506195054 48 171 8.7 13.9 0.00 0.00 0.00 73 849.7
20260506194853 48 179 10.4 17.4 0.00 0.00 0.00 73 849.7
20260506194637 48 169 8.7 13.0 0.00 0.00 0.00 73 849.7
20260506194439 48 154 7.8 13.0 0.00 0.00 0.00 73 849.7
20260506194239 48 163 7.8 13.0 0.00 0.00 0.00 73 849.8
20260506194137 48 170 7.8 13.0 0.00 0.00 0.00 72 849.8
20260506194039 48 173 8.7 16.5 0.00 0.00 0.00 72 849.8
20260506193839 48 170 8.7 16.5 0.00 0.00 0.00 72 849.8
20260506193634 48 162 8.7 13.9 0.00 0.00 0.00 72 849.8
20260506193435 48 169 8.7 11.3 0.00 0.00 0.00 72 849.8
20260506193234 48 177 7.0 10.4 0.00 0.00 0.00 72 849.8
20260506193134 48 180 6.1 10.4 0.00 0.00 0.00 72 849.8
20260506193034 48 179 7.0 11.3 0.00 0.00 0.00 72 849.9
20260506192834 48 172 7.0 11.3 0.00 0.00 0.00 72 849.9
20260506192631 48 169 7.0 12.2 0.00 0.00 0.00 72 849.9
20260506192432 48 168 7.8 14.8 0.00 0.00 0.00 72 849.8
20260506192232 49 167 9.6 13.9 0.00 0.00 0.00 72 849.8
20260506192131 49 167 8.7 13.9 0.00 0.00 0.00 72 849.8
20260506192032 49 165 7.0 10.4 0.00 0.00 0.00 72 849.8
20260506191628 49 169 7.0 12.2 0.00 0.00 0.00 72 849.8
20260506191429 49 173 7.0 11.3 0.00 0.00 0.00 72 849.8
20260506191228 49 174 7.0 11.3 0.00 0.00 0.00 72 849.8
20260506191128 49 175 7.0 11.3 0.00 0.00 0.00 72 849.8
20260506191028 49 175 7.8 11.3 0.00 0.00 0.00 71 849.7
20260506190625 49 175 7.8 11.3 0.00 0.00 0.00 71 849.8
20260506190426 49 176 7.0 9.6 0.00 0.00 0.00 71 849.8
20260506190225 49 163 7.8 15.6 0.00 0.00 0.00 71 849.8
20260506190124 49 164 7.0 15.6 0.00 0.00 0.00 71 849.8
20260506190026 49 164 7.0 15.6 0.00 0.00 0.00 71 849.8
20260506185621 49 167 7.0 11.3 0.00 0.00 0.00 71 849.8
20260506185423 49 170 7.0 11.3 0.00 0.00 0.00 71 849.8
20260506185223 49 165 7.8 13.0 0.00 0.00 0.00 71 849.8
20260506185121 49 161 7.0 13.0 0.00 0.00 0.00 71 849.7
20260506185018 49 164 7.0 12.2 0.00 0.00 0.00 71 849.7
20260506184819 49 173 7.0 12.2 0.00 0.00 0.00 71 849.7
20260506184615 49 177 6.1 11.3 0.00 0.00 0.00 71 849.8
20260506184415 49 173 7.0 11.3 0.00 0.00 0.00 71 849.8
20260506184215 49 172 6.1 10.4 0.00 0.00 0.00 71 849.9
20260506184115 49 171 6.1 8.7 0.00 0.00 0.00 71 849.9
20260506184015 49 172 7.0 12.2 0.00 0.00 0.00 71 849.9
20260506183815 49 174 7.0 12.2 0.00 0.00 0.00 71 849.9
20260506183612 49 177 7.0 12.2 0.00 0.00 0.00 71 849.9
20260506183413 49 179 7.0 12.2 0.00 0.00 0.00 71 849.8
20260506183213 49 173 7.0 12.2 0.00 0.00 0.00 71 849.9
20260506183112 49 169 7.0 11.3 0.00 0.00 0.00 71 849.9
20260506183013 49 171 6.1 9.6 0.00 0.00 0.00 70 849.8
20260506182813 49 172 5.2 8.7 0.00 0.00 0.00 70 849.8
20260506182609 49 168 6.1 12.2 0.00 0.00 0.00 70 849.8
20260506182410 49 170 6.1 12.2 0.00 0.00 0.00 70 849.8
20260506182210 49 172 6.1 10.4 0.00 0.00 0.00 70 849.8
20260506182109 49 172 6.1 10.4 0.00 0.00 0.00 70 849.8
20260506182010 49 176 7.0 13.9 0.00 0.00 0.00 70 849.8
20260506181810 49 172 8.7 13.9 0.00 0.00 0.00 70 849.8
20260506181606 49 173 7.0 12.2 0.00 0.00 0.00 70 849.8
20260506181408 49 175 6.1 13.9 0.00 0.00 0.00 70 849.9
20260506181208 49 170 6.1 13.9 0.00 0.00 0.00 69 849.9
20260506181106 49 170 7.0 13.9 0.00 0.00 0.00 69 849.9
20260506181007 49 166 7.0 13.9 0.00 0.00 0.00 69 849.9
20260506180807 50 164 7.0 10.4 0.00 0.00 0.00 69 849.9
20260506180603 50 178 6.1 7.8 0.00 0.00 0.00 69 849.9
20260506180405 50 181 6.1 8.7 0.00 0.00 0.00 69 849.9
20260506180204 50 170 7.0 10.4 0.00 0.00 0.00 69 849.8
20260506180103 50 165 7.0 11.3 0.00 0.00 0.00 69 849.8
20260506175600 50 170 5.2 8.7 0.00 0.00 0.00 68 849.9
20260506175403 50 171 7.0 12.2 0.00 0.00 0.00 68 849.9
20260506175100 50 171 7.0 12.2 0.00 0.00 0.00 68 849.9
20260506175003 50 168 6.1 12.2 0.00 0.00 0.00 68 849.9
20260506174557 50 164 6.1 10.4 0.00 0.00 0.00 68 850.0
20260506174358 50 172 6.1 9.6 0.00 0.00 0.00 68 850.0
20260506174158 50 178 7.0 12.2 0.00 0.00 0.00 68 850.0
20260506174057 50 174 7.0 12.2 0.00 0.00 0.00 68 850.0
20260506173958 50 175 7.0 12.2 0.00 0.00 0.00 68 850.0
20260506173554 50 173 5.2 7.0 0.00 0.00 0.00 68 850.1
20260506173354 50 174 6.1 8.7 0.00 0.00 0.00 68 850.1
20260506173154 50 173 6.1 10.4 0.00 0.00 0.00 68 850.0
20260506173054 50 170 7.0 10.4 0.00 0.00 0.00 68 850.0
20260506172954 50 169 6.1 10.4 0.00 0.00 0.00 67 850.1
20260506172754 51 168 5.2 13.0 0.00 0.00 0.00 67 850.1
20260506172551 51 171 5.2 9.6 0.00 0.00 0.00 67 850.1
20260506172352 51 176 5.2 8.7 0.00 0.00 0.00 67 850.1
20260506172152 51 176 5.2 8.7 0.00 0.00 0.00 67 850.1
20260506172051 51 179 5.2 8.7 0.00 0.00 0.00 67 850.1
20260506171952 51 185 5.2 8.7 0.00 0.00 0.00 67 850.1
20260506171752 51 183 5.2 9.6 0.00 0.00 0.00 67 850.1
20260506171548 51 168 5.2 9.6 0.00 0.00 0.00 67 850.1
20260506171350 51 170 5.2 7.0 0.00 0.00 0.00 67 850.1
20260506171150 51 173 5.2 7.0 0.00 0.00 0.00 67 850.1
20260506171034 51 171 6.1 13.0 0.00 0.00 0.00 66 850.1
20260506170934 51 168 7.0 13.0 0.00 0.00 0.00 66 850.1
20260506170734 51 173 7.0 12.2 0.00 0.00 0.00 66 850.1
20260506170531 52 170 6.1 8.7 0.00 0.00 0.00 66 850.1
20260506170332 52 173 6.1 10.4 0.00 0.00 0.00 66 850.1
20260506170132 52 179 6.1 8.7 0.00 0.00 0.00 66 850.0
20260506170031 52 180 6.1 8.7 0.00 0.00 0.00 66 850.0
20260506165933 52 178 6.1 10.4 0.00 0.00 0.00 66 850.0
20260506165731 52 176 6.1 10.4 0.00 0.00 0.00 66 850.0
20260506165527 53 172 4.3 9.6 0.00 0.00 0.00 66 850.0
20260506165328 53 165 4.3 8.7 0.00 0.00 0.00 66 850.1
20260506165128 53 173 3.5 8.7 0.00 0.00 0.00 66 850.1
20260506165027 53 183 3.5 7.8 0.00 0.00 0.00 66 850.1
20260506164928 53 183 3.5 7.8 0.00 0.00 0.00 66 850.1
20260506164728 53 184 4.3 7.8 0.00 0.00 0.00 66 850.2
20260506164524 53 178 4.3 7.0 0.00 0.00 0.00 65 850.2
20260506164326 53 176 3.5 6.1 0.00 0.00 0.00 65 850.2
20260506164127 53 174 5.2 9.6 0.00 0.00 0.00 65 850.1
20260506164024 53 171 5.2 9.6 0.00 0.00 0.00 65 850.1
20260506163926 53 178 5.2 9.6 0.00 0.00 0.00 65 850.1
20260506163725 53 177 4.3 8.7 0.00 0.00 0.00 65 850.2
20260506163521 53 177 7.0 14.8 0.00 0.00 0.00 65 850.2
20260506163322 53 180 7.0 10.4 0.00 0.00 0.00 65 850.2
20260506163123 53 173 5.2 9.6 0.00 0.00 0.00 65 850.2
20260506163021 54 176 5.2 9.6 0.00 0.00 0.00 65 850.2
20260506162921 54 178 7.0 11.3 0.00 0.00 0.00 65 850.2
20260506162721 54 182 7.8 11.3 0.00 0.00 0.00 65 850.2
20260506162523 55 182 5.2 9.6 0.00 0.00 0.00 65 850.2
20260506162518 54 185 7.0 12.2 0.00 0.00 0.00 65 850.2
20260506162319 54 183 7.0 14.8 0.00 0.00 0.00 65 850.2
20260506162119 55 184 4.3 7.0 0.00 0.00 0.00 65 850.2
20260506162017 55 182 5.2 9.6 0.00 0.00 0.00 65 850.2
20260506161920 55 179 5.2 9.6 0.00 0.00 0.00 65 850.3
20260506161718 55 176 5.2 10.4 0.00 0.00 0.00 65 850.2
20260506161515 55 182 6.1 11.3 0.00 0.00 0.00 65 850.3
20260506161115 55 176 5.2 8.7 0.00 0.00 0.00 65 850.3
20260506161015 55 182 5.2 8.7 0.00 0.00 0.00 64 850.3
20260506160915 55 178 6.1 11.3 0.00 0.00 0.00 65 850.4
20260506160715 55 178 5.2 11.3 0.00 0.00 0.00 64 850.4
20260506160512 55 178 4.3 7.8 0.00 0.00 0.00 64 850.4
20260506160113 55 179 6.1 11.3 0.00 0.00 0.00 64 850.3
20260506160012 55 185 7.0 11.3 0.00 0.00 0.00 64 850.3
20260506155913 55 185 7.8 12.2 0.00 0.00 0.00 64 850.3
20260506155713 55 182 7.0 12.2 0.00 0.00 0.00 64 850.3
20260506155509 55 179 7.0 10.4 0.00 0.00 0.00 64 850.4
20260506155310 55 176 6.1 10.4 0.00 0.00 0.00 64 850.4
20260506155110 55 183 5.2 8.7 0.00 0.00 0.00 64 850.4
20260506155008 55 184 5.2 11.3 0.00 0.00 0.00 64 850.4
20260506154910 55 178 5.2 11.3 0.00 0.00 0.00 64 850.4
20260506154709 55 175 5.2 7.8 0.00 0.00 0.00 64 850.4
20260506154505 55 176 6.1 8.7 0.00 0.00 0.00 64 850.4
20260506154106 54 175 4.3 9.6 0.00 0.00 0.00 64 850.5
20260506154005 54 175 5.2 9.6 0.00 0.00 0.00 64 850.5
20260506153906 54 177 6.1 12.2 0.00 0.00 0.00 64 850.6
20260506153706 54 178 6.1 12.2 0.00 0.00 0.00 64 850.6
20260506153502 54 178 6.1 9.6 0.00 0.00 0.00 64 850.6
20260506153304 54 176 5.2 8.7 0.00 0.00 0.00 64 850.6
20260506153104 55 175 5.2 8.7 0.00 0.00 0.00 63 850.6
20260506153002 55 169 5.2 8.7 0.00 0.00 0.00 63 850.5
20260506152903 55 170 4.3 7.0 0.00 0.00 0.00 63 850.5
20260506152702 55 176 4.3 7.0 0.00 0.00 0.00 63 850.5
20260506152459 55 177 4.3 7.8 0.00 0.00 0.00 63 850.5
20260506152259 55 171 4.3 5.2 0.00 0.00 0.00 63 850.5
20260506152059 55 175 4.3 7.8 0.00 0.00 0.00 63 850.5
20260506151958 55 178 5.2 7.8 0.00 0.00 0.00 63 850.5
20260506151859 55 176 5.2 7.8 0.00 0.00 0.00 63 850.6
20260506151700 55 180 5.2 11.3 0.00 0.00 0.00 63 850.6
20260506151456 55 175 7.0 11.3 0.00 0.00 0.00 63 850.6
20260506151256 55 178 6.1 9.6 0.00 0.00 0.00 63 850.7
20260506151056 55 178 4.3 9.6 0.00 0.00 0.00 63 850.7
20260506150956 55 178 3.5 7.8 0.00 0.00 0.00 63 850.7
20260506150856 55 180 4.3 6.1 0.00 0.00 0.00 63 850.7
20260506150452 55 174 3.5 6.1 0.00 0.00 0.00 63 850.7
20260506150259 55 174 2.6 5.2 0.00 0.00 0.00 63 850.7
20260506150053 56 173 3.5 7.8 0.00 0.00 0.00 63 850.7
20260506145952 56 176 3.5 7.8 0.00 0.00 0.00 63 850.7
20260506145852 56 173 3.5 7.8 0.00 0.00 0.00 63 850.7
20260506145652 56 168 2.6 4.3 0.00 0.00 0.00 63 850.7
20260506145449 56 175 4.3 8.7 0.00 0.00 0.00 63 850.7
20260506145251 57 191 5.2 9.6 0.00 0.00 0.00 63 850.6
20260506145050 56 194 6.1 10.4 0.00 0.00 0.00 63 850.6
20260506144949 56 190 6.1 10.4 0.00 0.00 0.00 63 850.6
20260506144850 56 189 5.2 10.4 0.00 0.00 0.00 63 850.6
20260506144650 56 183 5.2 9.6 0.00 0.00 0.00 63 850.7
20260506144446 56 189 5.2 9.6 0.00 0.00 0.00 63 850.7
20260506144246 56 190 4.3 7.8 0.00 0.00 0.00 63 850.8
20260506144047 56 185 4.3 7.0 0.00 0.00 0.00 63 850.8
20260506143945 56 185 4.3 9.6 0.00 0.00 0.00 63 850.8
20260506143845 56 184 4.3 9.6 0.00 0.00 0.00 63 850.8
20260506143646 56 184 3.5 7.0 0.00 0.00 0.00 63 850.8
20260506143429 56 191 4.3 8.7 0.00 0.00 0.00 63 850.8
20260506143231 56 186 3.5 8.7 0.00 0.00 0.00 62 850.8
20260506143031 56 174 3.5 6.1 0.00 0.00 0.00 62 850.8
20260506142929 56 179 4.3 7.0 0.00 0.00 0.00 62 850.8
20260506142830 56 182 4.3 7.8 0.00 0.00 0.00 62 850.8
20260506142629 56 172 3.5 7.8 0.00 0.00 0.00 62 850.8
20260506142426 56 175 4.3 8.7 0.00 0.00 0.00 62 850.8
20260506142227 56 182 3.5 7.8 0.00 0.00 0.00 62 850.9
20260506142027 56 179 6.1 9.6 0.00 0.00 0.00 62 850.8
20260506141926 56 182 6.1 9.6 0.00 0.00 0.00 62 850.8
20260506141827 56 182 6.1 10.4 0.00 0.00 0.00 62 850.8
20260506141627 57 175 5.2 10.4 0.00 0.00 0.00 62 850.8
20260506141423 57 173 3.5 7.8 0.00 0.00 0.00 62 850.8
20260506141225 57 171 3.5 6.1 0.00 0.00 0.00 62 850.9
20260506141025 57 179 5.2 10.4 0.00 0.00 0.00 62 850.8
20260506140923 58 176 6.1 10.4 0.00 0.00 0.00 62 850.8
20260506140825 58 176 5.2 10.4 0.00 0.00 0.00 62 850.8
20260506140624 58 183 3.5 7.0 0.00 0.00 0.00 62 850.8
20260506140420 58 183 3.5 9.6 0.00 0.00 0.00 61 850.8
20260506140221 59 188 5.2 9.6 0.00 0.00 0.00 61 850.8
20260506140020 59 181 4.3 8.7 0.00 0.00 0.00 61 850.7
20260506135920 59 184 3.5 8.7 0.00 0.00 0.00 61 850.7
20260506135820 59 195 3.5 8.7 0.00 0.00 0.00 62 850.7
20260506135621 60 189 4.3 7.8 0.00 0.00 0.00 61 850.7
20260506135417 60 188 6.1 10.4 0.00 0.00 0.00 61 850.7
20260506135219 60 181 6.1 9.6 0.00 0.00 0.00 61 850.7
20260506135019 60 188 5.2 7.8 0.00 0.00 0.00 61 850.6
20260506134917 60 197 4.3 7.8 0.00 0.00 0.00 61 850.6
20260506134818 59 199 4.3 7.8 0.00 0.00 0.00 61 850.5
20260506134619 59 193 5.2 7.8 0.00 0.00 0.00 62 850.6
20260506134414 58 193 4.3 9.6 0.00 0.00 0.00 61 850.7
20260506134215 58 196 3.5 9.6 0.00 0.00 0.00 62 850.8
20260506134015 58 180 3.5 9.6 0.00 0.00 0.00 62 850.8
20260506133914 58 187 4.3 9.6 0.00 0.00 0.00 62 850.8
20260506133814 58 189 5.2 10.4 0.00 0.00 0.00 62 850.8
20260506133614 59 189 5.2 10.4 0.00 0.00 0.00 61 850.8
20260506133411 59 197 5.2 7.8 0.00 0.00 0.00 61 850.7
20260506133212 60 186 3.5 7.0 0.00 0.00 0.00 61 850.7
20260506132911 60 200 6.1 10.4 0.00 0.00 0.00 61 850.7
20260506132812 60 206 6.1 10.4 0.00 0.00 0.00 61 850.7
20260506132408 59 204 4.3 7.8 0.00 0.00 0.00 61 850.6
20260506132210 59 199 5.2 9.6 0.00 0.00 0.00 62 850.6
20260506132010 58 204 6.1 9.6 0.00 0.00 0.00 61 850.7
20260506131908 58 205 5.2 7.8 0.00 0.00 0.00 61 850.7
20260506131609 58 194 5.2 9.6 0.00 0.00 0.00 61 850.8
20260506131405 59 194 5.2 8.7 0.00 0.00 0.00 61 850.9
20260506131207 60 189 5.2 8.7 0.00 0.00 0.00 61 850.9
20260506131006 60 196 7.0 15.6 0.00 0.00 0.00 61 850.8
20260506130905 60 198 6.1 15.6 0.00 0.00 0.00 61 850.8
20260506130806 60 202 5.2 15.6 0.00 0.00 0.00 61 850.8
20260506130606 60 201 5.2 11.3 0.00 0.00 0.00 61 850.8
20260506130402 60 206 6.1 10.4 0.00 0.00 0.00 61 850.8
20260506130204 60 196 3.5 10.4 0.00 0.00 0.00 61 850.9
20260506130004 60 191 5.2 13.9 0.00 0.00 0.00 60 851.0
20260506125903 60 201 7.0 13.9 0.00 0.00 0.00 60 851.0
20260506125803 60 208 7.8 13.9 0.00 0.00 0.00 61 851.0
20260506125603 60 212 6.1 10.4 0.00 0.00 0.00 61 850.8
20260506125359 60 208 5.2 10.4 0.00 0.00 0.00 61 850.6
20260506125159 59 203 4.3 7.8 0.00 0.00 0.00 62 850.4
20260506124959 58 203 7.0 13.0 0.00 0.00 0.00 62 850.4
20260506124859 58 204 7.0 13.0 0.00 0.00 0.00 62 850.4
20260506124800 58 210 5.2 12.2 0.00 0.00 0.00 62 850.4
20260506124600 58 204 4.3 8.7 0.00 0.00 0.00 62 850.5
20260506124356 58 211 5.2 7.8 0.00 0.00 0.00 62 850.5
20260506124157 58 239 3.5 7.0 0.00 0.00 0.00 62 850.4
20260506123957 59 242 5.2 7.8 0.00 0.00 0.00 62 850.3
20260506123856 59 230 4.3 7.8 0.00 0.00 0.00 62 850.3
20260506123757 59 214 5.2 8.7 0.00 0.00 0.00 62 850.3
20260506123556 59 203 4.3 8.7 0.00 0.00 0.00 62 850.3
20260506123353 58 216 6.1 10.4 0.00 0.00 0.00 62 850.5
20260506123153 58 215 6.1 10.4 0.00 0.00 0.00 62 850.7
20260506122954 58 211 6.1 13.0 0.00 0.00 0.00 62 850.8
20260506122853 58 208 7.0 13.0 0.00 0.00 0.00 62 850.8
20260506122753 58 212 5.2 8.7 0.00 0.00 0.00 62 850.9
20260506122554 58 212 5.2 7.8 0.00 0.00 0.00 62 850.9
20260506122350 58 191 4.3 7.0 0.00 0.00 0.00 62 850.8
20260506122151 58 197 2.6 4.3 0.00 0.00 0.00 62 850.8
20260506121952 58 203 2.6 6.1 0.00 0.00 0.00 62 850.9
20260506121850 59 204 3.5 6.1 0.00 0.00 0.00 62 850.8
20260506121552 59 200 3.5 7.8 0.00 0.00 0.00 62 850.8
20260506121347 60 200 3.5 7.8 0.00 0.00 0.00 62 850.8
20260506121148 61 189 3.5 7.0 0.00 0.00 0.00 62 850.7
20260506120948 61 193 2.6 5.2 0.00 0.00 0.00 61 850.7
20260506120847 62 194 4.3 9.6 0.00 0.00 0.00 61 850.7
20260506120747 62 197 5.2 10.4 0.00 0.00 0.00 61 850.7
20260506120547 62 194 7.0 11.3 0.00 0.00 0.00 61 850.6
20260506120344 62 194 7.8 11.3 0.00 0.00 0.00 61 850.5
20260506120145 62 232 4.3 8.7 0.00 0.00 0.00 62 850.5
20260506115945 61 239 3.5 6.1 0.00 0.00 0.00 62 850.6
20260506115831 60 228 5.2 7.8 0.00 0.00 0.00 62 850.6
20260506115731 60 222 6.1 14.8 0.00 0.00 0.00 62 850.6
20260506115532 59 213 7.0 14.8 0.00 0.00 0.00 63 850.6
20260506115328 58 206 5.2 12.2 0.00 0.00 0.00 63 850.7
20260506115129 58 195 5.2 10.4 0.00 0.00 0.00 63 850.8
20260506114929 57 219 5.2 10.4 0.00 0.00 0.00 63 850.9
20260506114828 58 227 5.2 9.6 0.00 0.00 0.00 63 850.9
20260506114730 58 234 5.2 7.0 0.00 0.00 0.00 63 850.8
20260506114530 58 230 6.1 13.0 0.00 0.00 0.00 63 850.8
20260506114325 58 226 6.1 13.0 0.00 0.00 0.00 63 850.7
20260506114125 57 228 6.1 8.7 0.00 0.00 0.00 63 850.7
20260506113926 57 222 3.5 7.0 0.00 0.00 0.00 63 850.7
20260506113824 57 205 3.5 7.8 0.00 0.00 0.00 63 850.8
20260506113725 57 200 3.5 7.8 0.00 0.00 0.00 63 850.8
20260506113526 57 188 5.2 7.0 0.00 0.00 0.00 63 850.9
20260506113321 58 183 6.1 11.3 0.00 0.00 0.00 63 850.9
20260506113122 58 194 5.2 7.8 0.00 0.00 0.00 63 850.8
20260506112922 58 194 6.1 10.4 0.00 0.00 0.00 63 850.8
20260506112821 58 200 6.1 10.4 0.00 0.00 0.00 63 850.8
20260506112721 58 199 6.1 10.4 0.00 0.00 0.00 63 850.8
20260506112522 57 193 6.1 9.6 0.00 0.00 0.00 63 850.9
20260506112318 57 213 6.1 8.7 0.00 0.00 0.00 63 850.9
20260506112118 58 236 6.1 8.7 0.00 0.00 0.00 62 850.9
20260506111919 59 235 7.0 11.3 0.00 0.00 0.00 62 850.8
20260506111818 59 237 7.0 11.3 0.00 0.00 0.00 62 850.8
20260506111718 60 243 6.1 10.4 0.00 0.00 0.00 62 850.8
20260506111518 61 249 6.1 9.6 0.00 0.00 0.00 62 850.6
20260506111314 61 209 6.1 10.4 0.00 0.00 0.00 62 850.6
20260506111115 61 196 7.0 10.4 0.00 0.00 0.00 62 850.6
20260506110915 61 201 4.3 7.0 0.00 0.00 0.00 62 850.6
20260506110814 61 213 4.3 8.7 0.00 0.00 0.00 62 850.6
20260506110715 61 223 4.3 8.7 0.00 0.00 0.00 62 850.6
20260506110515 61 220 5.2 10.4 0.00 0.00 0.00 62 850.6
20260506110311 61 197 8.7 13.9 0.00 0.00 0.00 62 850.6
20260506110110 61 199 8.7 13.9 0.00 0.00 0.00 62 850.5
20260506105910 61 203 6.1 13.0 0.00 0.00 0.00 62 850.5
20260506105809 60 202 4.3 8.7 0.00 0.00 0.00 62 850.5
20260506105709 60 215 3.5 6.1 0.00 0.00 0.00 62 850.5
20260506105509 60 214 4.3 7.8 0.00 0.00 0.00 62 850.5
20260506105306 59 226 5.2 7.8 0.00 0.00 0.00 62 850.6
20260506105108 58 227 5.2 10.4 0.00 0.00 0.00 63 850.6
20260506104908 57 238 5.2 10.4 0.00 0.00 0.00 63 850.7
20260506104806 57 238 4.3 8.7 0.00 0.00 0.00 63 850.7
20260506104708 57 238 5.2 12.2 0.00 0.00 0.00 63 850.7
20260506104507 57 233 7.0 12.2 0.00 0.00 0.00 63 850.7
20260506104303 57 238 7.8 12.2 0.00 0.00 0.00 63 850.7
20260506104103 57 246 7.8 11.3 0.00 0.00 0.00 63 850.7
20260506103904 58 245 6.1 9.6 0.00 0.00 0.00 62 850.7
20260506103803 58 256 7.0 13.9 0.00 0.00 0.00 62 850.7
20260506103703 58 250 7.8 13.9 0.00 0.00 0.00 62 850.6
20260506103503 58 241 8.7 13.0 0.00 0.00 0.00 63 850.6
20260506103300 58 238 7.0 12.2 0.00 0.00 0.00 63 850.6
20260506103101 57 243 7.0 11.3 0.00 0.00 0.00 63 850.6
20260506102901 57 232 7.0 11.3 0.00 0.00 0.00 63 850.7
20260506102800 57 229 7.0 12.2 0.00 0.00 0.00 63 850.7
20260506102702 56 236 7.8 12.2 0.00 0.00 0.00 63 850.8
20260506102501 56 227 8.7 15.6 0.00 0.00 0.00 63 850.8
20260506102257 56 223 9.6 15.6 0.00 0.00 0.00 63 850.9
20260506102057 56 229 8.7 13.9 0.00 0.00 0.00 63 850.9
20260506101858 56 240 7.8 13.9 0.00 0.00 0.00 63 850.9
20260506101757 56 239 7.0 10.4 0.00 0.00 0.00 63 850.8
20260506101458 57 225 6.1 8.7 0.00 0.00 0.00 63 850.8
20260506101254 57 225 7.0 9.6 0.00 0.00 0.00 63 850.8
20260506101055 57 231 4.3 7.8 0.00 0.00 0.00 63 850.8
20260506100854 58 248 5.2 11.3 0.00 0.00 0.00 63 850.7
20260506100754 58 239 5.2 11.3 0.00 0.00 0.00 63 850.7
20260506100654 58 222 6.1 11.3 0.00 0.00 0.00 63 850.7
20260506100454 58 220 6.1 9.6 0.00 0.00 0.00 63 850.7
20260506100251 58 207 7.0 11.3 0.00 0.00 0.00 63 850.6
20260506100052 58 198 5.2 9.6 0.00 0.00 0.00 63 850.6
20260506095852 58 213 5.2 10.4 0.00 0.00 0.00 63 850.7
20260506095751 58 229 6.1 10.4 0.00 0.00 0.00 63 850.7
20260506095652 58 233 7.0 10.4 0.00 0.00 0.00 63 850.6
20260506095451 58 237 7.0 10.4 0.00 0.00 0.00 63 850.6
20260506095248 58 220 6.1 10.4 0.00 0.00 0.00 63 850.6
20260506095049 58 216 7.0 11.3 0.00 0.00 0.00 63 850.6
20260506094849 58 221 5.2 10.4 0.00 0.00 0.00 63 850.5
20260506094747 58 219 3.5 8.7 0.00 0.00 0.00 63 850.5
20260506094648 58 210 4.3 8.7 0.00 0.00 0.00 63 850.5
20260506094244 57 211 4.3 8.7 0.00 0.00 0.00 64 850.5
20260506094045 57 200 5.2 12.2 0.00 0.00 0.00 64 850.5
20260506093744 56 212 7.0 11.3 0.00 0.00 0.00 64 850.6
20260506093644 56 210 7.0 11.3 0.00 0.00 0.00 64 850.6
20260506093444 56 208 7.0 13.9 0.00 0.00 0.00 64 850.5
20260506093241 56 197 7.8 13.9 0.00 0.00 0.00 64 850.5
20260506093042 56 202 6.1 10.4 0.00 0.00 0.00 64 850.5
20260506092741 56 198 7.8 12.2 0.00 0.00 0.00 64 850.5
20260506092225 57 209 6.1 10.4 0.00 0.00 0.00 65 850.4
20260506092026 57 210 4.3 10.4 0.00 0.00 0.00 65 850.3
20260506091826 56 214 3.5 6.1 0.00 0.00 0.00 65 850.3
20260506091725 56 212 4.3 9.6 0.00 0.00 0.00 65 850.3
20260506091625 56 208 6.1 9.6 0.00 0.00 0.00 65 850.3
20260506091427 56 209 7.0 11.3 0.00 0.00 0.00 65 850.4
20260506091221 56 218 6.1 9.6 0.00 0.00 0.00 65 850.4
20260506091022 55 213 7.8 13.0 0.00 0.00 0.00 65 850.4
20260506090822 55 205 7.0 13.0 0.00 0.00 0.00 66 850.3
20260506090720 55 209 6.1 12.2 0.00 0.00 0.00 66 850.4
20260506090621 55 220 5.2 8.7 0.00 0.00 0.00 66 850.4
20260506090421 55 225 6.1 9.6 0.00 0.00 0.00 66 850.3
20260506090217 55 230 7.8 12.2 0.00 0.00 0.00 66 850.3
20260506090018 55 203 7.8 12.2 0.00 0.00 0.00 66 850.2
20260506085818 55 193 7.8 13.0 0.00 0.00 0.00 66 850.2
20260506085717 55 197 7.8 13.0 0.00 0.00 0.00 66 850.3
20260506085618 55 195 7.8 13.0 0.00 0.00 0.00 66 850.2
20260506085418 55 198 8.7 13.9 0.00 0.00 0.00 66 850.2
20260506085214 55 196 7.8 13.0 0.00 0.00 0.00 66 850.2
20260506085017 55 203 7.0 12.2 0.00 0.00 0.00 66 850.2
20260506084817 55 196 7.8 9.6 0.00 0.00 0.00 66 850.2
20260506084714 54 192 8.7 14.8 0.00 0.00 0.00 66 850.2
20260506084616 54 193 7.8 14.8 0.00 0.00 0.00 66 850.2
20260506084416 54 199 7.8 13.9 0.00 0.00 0.00 66 850.2
20260506084211 54 199 8.7 13.9 0.00 0.00 0.00 66 850.2
20260506084012 54 194 7.8 10.4 0.00 0.00 0.00 66 850.2
20260506083813 54 205 7.8 10.4 0.00 0.00 0.00 66 850.1
20260506083711 54 220 7.0 10.4 0.00 0.00 0.00 66 850.1
20260506083208 54 219 7.0 11.3 0.00 0.00 0.00 67 850.1
20260506083010 54 201 6.1 10.4 0.00 0.00 0.00 67 850.1
20260506082708 53 211 7.0 11.3 0.00 0.00 0.00 67 850.1
20260506082606 53 202 7.8 11.3 0.00 0.00 0.00 67 850.1
20260506082405 53 193 7.0 11.3 0.00 0.00 0.00 67 850.1
20260506082202 53 204 7.8 13.9 0.00 0.00 0.00 67 850.1
20260506082004 53 196 8.7 17.4 0.00 0.00 0.00 67 850.1
20260506081803 52 206 8.7 17.4 0.00 0.00 0.00 67 850.1
20260506081702 52 208 7.8 11.3 0.00 0.00 0.00 67 850.1
20260506081402 52 200 9.6 15.6 0.00 0.00 0.00 67 850.0
20260506081159 52 196 9.6 13.9 0.00 0.00 0.00 67 850.0
20260506081000 52 197 8.7 13.9 0.00 0.00 0.00 67 850.0
20260506080801 52 201 10.4 17.4 0.00 0.00 0.00 67 849.9
20260506080659 52 200 11.3 17.4 0.00 0.00 0.00 67 849.9
20260506080156 52 211 7.8 12.2 0.00 0.00 0.00 68 849.8
20260506073350 51 201 11.3 17.4 0.00 0.00 0.00 69 849.8
20260506073146 51 200 10.4 15.6 0.00 0.00 0.00 69 849.7
20260506072948 51 194 11.3 17.4 0.00 0.00 0.00 69 849.7
20260506072748 51 193 11.3 17.4 0.00 0.00 0.00 69 849.7
20260506072646 51 195 9.6 17.4 0.00 0.00 0.00 69 849.7
20260506072547 51 198 7.8 13.0 0.00 0.00 0.00 69 849.6
20260506072347 51 200 8.7 11.3 0.00 0.00 0.00 69 849.5
20260506072143 51 203 9.6 18.2 0.00 0.00 0.00 69 849.4
20260506071946 50 201 7.0 8.7 0.00 0.00 0.00 69 849.3
20260506071746 50 200 8.7 12.2 0.00 0.00 0.00 69 849.2
20260506071643 50 198 8.7 12.2 0.00 0.00 0.00 69 849.2
20260506071554 50 192 8.7 12.2 0.00 0.00 0.00 69 849.2
20260506071344 50 189 8.7 13.9 0.00 0.00 0.00 69 849.2
20260506071141 49 190 8.7 13.9 0.00 0.00 0.00 70 849.2
20260506070942 49 193 8.7 13.9 0.00 0.00 0.00 70 849.3
20260506070742 49 194 10.4 17.4 0.00 0.00 0.00 70 849.3
20260506070641 49 191 11.3 17.4 0.00 0.00 0.00 70 849.3
20260506070341 49 201 11.3 19.1 0.00 0.00 0.00 70 849.2
20260506070137 49 207 10.4 19.1 0.00 0.00 0.00 70 849.2
20260506062517 47 192 12.2 20.0 0.00 0.00 0.00 71 848.7
20260506062317 47 193 11.3 14.8 0.00 0.00 0.00 71 848.8
20260506062112 47 197 13.0 19.1 0.00 0.00 0.00 70 848.8
20260506061914 47 194 13.0 20.0 0.00 0.00 0.00 70 848.8
20260506061612 47 192 13.9 20.9 0.00 0.00 0.00 70 848.8
20260506061513 47 193 13.9 20.9 0.00 0.00 0.00 70 848.9
20260506061314 47 196 13.0 17.4 0.00 0.00 0.00 70 848.9
20260506061109 47 190 13.0 17.4 0.00 0.00 0.00 70 848.9
20260506060911 47 191 12.2 17.4 0.00 0.00 0.00 70 848.9
20260506060710 47 191 12.2 15.6 0.00 0.00 0.00 70 848.9
20260506060610 47 190 11.3 15.6 0.00 0.00 0.00 70 848.9
20260506060511 47 191 11.3 15.6 0.00 0.00 0.00 70 848.9
20260506060311 47 186 11.3 18.2 0.00 0.00 0.00 70 848.9
20260506060107 47 193 12.2 18.2 0.00 0.00 0.00 70 848.8
20260506051257 47 181 13.9 22.6 0.00 0.00 0.00 70 848.4
20260506051052 47 180 12.2 17.4 0.00 0.00 0.00 70 848.4
20260506050852 47 183 13.0 20.9 0.00 0.00 0.00 70 848.4
20260506050653 47 183 13.0 21.7 0.00 0.00 0.00 70 848.4
20260506050552 47 183 13.0 21.7 0.00 0.00 0.00 70 848.3
20260506050452 47 184 12.2 19.1 0.00 0.00 0.00 70 848.3
20260506050253 47 183 14.8 22.6 0.00 0.00 0.00 70 848.2
20260506045045 45 183 12.2 20.0 0.00 0.00 0.00 71 848.0
20260506044846 45 184 13.0 20.0 0.00 0.00 0.00 72 848.0
20260506044646 44 174 10.4 18.2 0.00 0.00 0.00 72 848.3
20260506044545 44 175 9.6 14.8 0.00 0.00 0.00 72 848.5
20260506044445 44 178 9.6 14.8 0.00 0.00 0.00 72 848.5
20260506044246 44 179 10.4 19.1 0.00 0.00 0.00 72 848.5
20260506044042 43 165 9.6 15.6 0.00 0.00 0.00 72 848.6
20260506043843 43 171 10.4 16.5 0.00 0.00 0.00 72 848.6
20260506043542 43 167 8.7 14.8 0.00 0.00 0.00 72 848.6
20260506043444 43 163 8.7 14.8 0.00 0.00 0.00 72 848.5
20260506043243 43 158 8.7 14.8 0.00 0.00 0.00 72 848.5
20260506043039 43 154 9.6 13.9 0.00 0.00 0.00 72 848.5
20260506042641 43 159 9.6 17.4 0.00 0.00 0.00 71 848.5
20260506042539 43 159 9.6 17.4 0.00 0.00 0.00 71 848.4
20260506042440 43 167 8.7 13.9 0.00 0.00 0.00 71 848.4
20260506042240 44 173 8.7 14.8 0.00 0.00 0.00 71 848.3
20260506042036 44 169 8.7 13.9 0.00 0.00 0.00 71 848.3
20260506041838 44 172 8.7 13.9 0.00 0.00 0.00 72 848.2
20260506041637 44 179 7.8 13.0 0.00 0.00 0.00 72 848.2
20260506041535 44 177 7.8 13.0 0.00 0.00 0.00 72 848.2
20260506041437 44 177 7.8 13.0 0.00 0.00 0.00 72 848.2
20260506041237 43 174 8.7 15.6 0.00 0.00 0.00 72 848.1
20260506041020 43 177 8.7 15.6 0.00 0.00 0.00 72 848.1
20260506040821 43 175 9.6 13.9 0.00 0.00 0.00 73 848.1
20260506040520 43 178 11.3 20.0 0.00 0.00 0.00 72 848.4
20260506040420 43 180 11.3 20.0 0.00 0.00 0.00 72 848.5
20260506040220 43 183 10.4 17.4 0.00 0.00 0.00 72 848.6
20260506040016 43 178 9.6 13.0 0.00 0.00 0.00 72 848.6
20260506035817 43 182 8.7 14.8 0.00 0.00 0.00 72 848.6
20260506035618 43 187 9.6 14.8 0.00 0.00 0.00 72 848.6
20260506035516 43 185 9.6 14.8 0.00 0.00 0.00 72 848.5
20260506035416 43 185 9.6 14.8 0.00 0.00 0.00 72 848.5
20260506035217 43 181 9.6 17.4 0.00 0.00 0.00 72 848.5
20260506035013 43 181 10.4 17.4 0.00 0.00 0.00 72 848.5
20260506034814 43 189 10.4 17.4 0.00 0.00 0.00 72 848.5
20260506034613 43 189 9.6 13.0 0.00 0.00 0.00 72 848.5
20260506034513 43 182 9.6 13.0 0.00 0.00 0.00 72 848.5
20260506034413 43 182 8.7 13.0 0.00 0.00 0.00 72 848.5
20260506034213 43 178 9.6 13.9 0.00 0.00 0.00 72 848.5
20260506034010 43 176 8.7 17.4 0.00 0.00 0.00 71 848.5
20260506033613 43 177 10.4 19.1 0.00 0.00 0.00 71 848.5
20260506033510 43 179 10.4 19.1 0.00 0.00 0.00 71 848.5
20260506033413 43 182 9.6 15.6 0.00 0.00 0.00 71 848.5
20260506033213 43 176 8.7 13.0 0.00 0.00 0.00 71 848.5
20260506033007 43 178 8.7 16.5 0.00 0.00 0.00 71 848.4
20260506032808 43 173 8.7 13.0 0.00 0.00 0.00 71 848.4
20260506032608 43 167 7.8 14.8 0.00 0.00 0.00 71 848.4
20260506032507 43 175 7.0 14.8 0.00 0.00 0.00 71 848.4
20260506032408 43 173 7.0 14.8 0.00 0.00 0.00 71 848.4
20260506032004 43 178 9.6 19.1 0.00 0.00 0.00 71 848.4
20260506031805 43 180 10.4 17.4 0.00 0.00 0.00 71 848.5
20260506031605 43 184 10.4 17.4 0.00 0.00 0.00 71 848.5
20260506031504 43 176 9.6 13.0 0.00 0.00 0.00 71 848.5
20260506031406 43 177 10.4 19.1 0.00 0.00 0.00 71 848.5
20260506031204 43 183 11.3 19.1 0.00 0.00 0.00 71 848.5
20260506031001 43 183 10.4 15.6 0.00 0.00 0.00 71 848.4
20260506030804 43 183 9.6 13.0 0.00 0.00 0.00 71 848.4
20260506030501 43 185 11.3 19.1 0.00 0.00 0.00 71 848.4
20260506030401 43 185 10.4 19.1 0.00 0.00 0.00 71 848.4
20260506030201 43 185 7.0 13.9 0.00 0.00 0.00 70 848.3
20260506025957 43 194 8.7 12.2 0.00 0.00 0.00 70 848.3
20260506025759 43 187 9.6 14.8 0.00 0.00 0.00 70 848.2
20260506025559 43 187 10.4 18.2 0.00 0.00 0.00 70 848.2
20260506025457 43 185 11.3 20.9 0.00 0.00 0.00 70 848.2
20260506025359 43 182 9.6 20.9 0.00 0.00 0.00 70 848.3
20260506024955 43 177 9.6 18.2 0.00 0.00 0.00 70 848.2
20260506024755 43 175 11.3 19.1 0.00 0.00 0.00 70 848.2
20260506024555 43 181 12.2 20.0 0.00 0.00 0.00 70 848.1
20260506024455 44 177 11.3 20.0 0.00 0.00 0.00 70 848.1
20260506023952 44 180 9.6 16.5 0.00 0.00 0.00 70 848.1
20260506023753 44 175 10.4 13.9 0.00 0.00 0.00 70 848.1
20260506023452 44 177 8.7 13.9 0.00 0.00 0.00 70 848.0
20260506023353 44 177 8.7 13.9 0.00 0.00 0.00 70 848.0
20260506023153 44 166 8.7 13.9 0.00 0.00 0.00 70 848.0
20260506022949 44 180 9.6 14.8 0.00 0.00 0.00 69 848.0
20260506022751 44 172 11.3 19.1 0.00 0.00 0.00 69 848.0
20260506022549 44 166 9.6 13.9 0.00 0.00 0.00 69 848.1
20260506022448 44 170 8.7 12.2 0.00 0.00 0.00 69 848.1
20260506022349 44 174 8.7 13.0 0.00 0.00 0.00 69 848.1
20260506021945 44 160 8.7 13.0 0.00 0.00 0.00 69 848.1
20260506021747 44 166 9.6 20.9 0.00 0.00 0.00 69 848.1
20260506021546 44 172 8.7 16.5 0.00 0.00 0.00 69 848.1
20260506021445 44 173 8.7 13.9 0.00 0.00 0.00 69 848.1
20260506021347 44 175 8.7 13.9 0.00 0.00 0.00 69 848.1
20260506021146 44 163 9.6 15.6 0.00 0.00 0.00 69 848.1
20260506020942 44 164 9.6 14.8 0.00 0.00 0.00 69 848.1
20260506020743 44 167 8.7 15.6 0.00 0.00 0.00 69 848.1
20260506020442 44 162 9.6 16.5 0.00 0.00 0.00 68 848.2
20260506020343 44 164 10.4 16.5 0.00 0.00 0.00 68 848.2
20260506015939 44 167 9.6 13.9 0.00 0.00 0.00 68 848.2
20260506015740 44 162 8.7 13.9 0.00 0.00 0.00 68 848.2
20260506015540 44 164 8.7 20.9 0.00 0.00 0.00 68 848.3
20260506015439 44 167 8.7 20.9 0.00 0.00 0.00 68 848.3
20260506015340 44 171 7.8 20.9 0.00 0.00 0.00 68 848.3
20260506015139 44 167 7.8 13.9 0.00 0.00 0.00 68 848.3
20260506014936 44 175 7.8 13.9 0.00 0.00 0.00 68 848.3
20260506014737 44 177 8.7 13.9 0.00 0.00 0.00 68 848.3
20260506014537 44 169 7.8 12.2 0.00 0.00 0.00 68 848.3
20260506014436 44 170 7.8 12.2 0.00 0.00 0.00 67 848.3
20260506013933 44 154 7.8 13.9 0.00 0.00 0.00 67 848.2
20260506013734 44 167 7.8 13.9 0.00 0.00 0.00 67 848.3
20260506013534 44 168 7.8 13.0 0.00 0.00 0.00 67 848.3
20260506013420 44 168 8.7 13.0 0.00 0.00 0.00 67 848.3
20260506013325 44 167 9.6 14.8 0.00 0.00 0.00 67 848.4
20260506013123 44 171 9.6 16.5 0.00 0.00 0.00 67 848.4
20260506012917 45 176 8.7 16.5 0.00 0.00 0.00 67 848.4
20260506012719 45 177 8.7 15.6 0.00 0.00 0.00 67 848.5
20260506012519 45 173 9.6 20.0 0.00 0.00 0.00 67 848.4
20260506012419 45 173 8.7 20.0 0.00 0.00 0.00 67 848.4
20260506012417 45 173 8.7 20.0 0.00 0.00 0.00 66 848.4
20260506012319 45 175 7.0 13.9 0.00 0.00 0.00 66 848.4
20260506012119 45 173 8.7 13.9 0.00 0.00 0.00 66 848.5
20260506011911 45 171 9.6 15.6 0.00 0.00 0.00 66 848.4
20260506011710 45 176 11.3 20.9 0.00 0.00 0.00 66 848.3
20260506011408 45 185 11.3 17.4 0.00 0.00 0.00 67 848.2
20260506011310 45 181 10.4 17.4 0.00 0.00 0.00 66 848.2
20260506011110 45 180 10.4 19.1 0.00 0.00 0.00 66 848.2
20260506010906 45 179 12.2 18.2 0.00 0.00 0.00 66 848.2
20260506010709 45 178 10.4 17.4 0.00 0.00 0.00 66 848.2
20260506010509 45 175 8.7 13.9 0.00 0.00 0.00 65 848.2
20260506010406 45 179 8.7 14.8 0.00 0.00 0.00 65 848.2
20260506010110 45 178 12.2 19.1 0.00 0.00 0.00 65 848.2
20260506005900 45 185 12.2 23.5 0.00 0.00 0.00 65 848.1
20260506005702 45 194 12.2 23.5 0.00 0.00 0.00 65 848.1
20260506005502 45 183 11.3 16.5 0.00 0.00 0.00 65 848.0
20260506005400 45 182 11.3 15.6 0.00 0.00 0.00 64 848.0
20260506005301 45 184 11.3 16.5 0.00 0.00 0.00 64 848.0
20260506005100 46 180 11.3 16.5 0.00 0.00 0.00 64 848.0
20260506004857 46 178 9.6 15.6 0.00 0.00 0.00 64 848.0
20260506004658 46 174 12.2 26.9 0.00 0.00 0.00 64 848.0
20260506004458 46 172 11.3 22.6 0.00 0.00 0.00 64 848.0
20260506004357 46 174 10.4 18.2 0.00 0.00 0.00 64 848.0
20260506004257 46 179 10.4 15.6 0.00 0.00 0.00 64 848.0
20260506004057 46 180 12.2 16.5 0.00 0.00 0.00 64 847.9
20260506003854 46 178 13.9 26.1 0.00 0.00 0.00 64 847.9
20260506003655 46 181 13.0 26.1 0.00 0.00 0.00 64 847.8
20260506003455 46 180 13.0 21.7 0.00 0.00 0.00 64 847.7
20260506003354 46 178 13.0 21.7 0.00 0.00 0.00 64 847.7
20260506003255 46 177 12.2 20.0 0.00 0.00 0.00 64 847.8
20260506003055 46 172 11.3 20.0 0.00 0.00 0.00 64 847.8
20260506002851 46 179 13.0 21.7 0.00 0.00 0.00 64 847.8
20260506002652 46 177 13.9 21.7 0.00 0.00 0.00 64 847.9
20260506002453 46 174 13.0 21.7 0.00 0.00 0.00 63 847.9
20260506002351 46 179 12.2 17.4 0.00 0.00 0.00 63 847.9
20260506002251 46 183 12.2 17.4 0.00 0.00 0.00 63 847.9
20260506002051 46 177 13.0 28.7 0.00 0.00 0.00 63 847.9
20260506001848 46 178 11.3 20.0 0.00 0.00 0.00 63 847.9
20260506001649 46 176 12.2 17.4 0.00 0.00 0.00 63 847.9
20260506001448 46 182 11.3 17.4 0.00 0.00 0.00 63 847.8
20260506001347 46 178 10.4 15.6 0.00 0.00 0.00 63 847.8
20260506001246 46 171 11.3 19.1 0.00 0.00 0.00 63 847.8
20260506001046 46 174 11.3 19.1 0.00 0.00 0.00 63 847.9
20260506000842 46 170 11.3 22.6 0.00 0.00 0.00 63 847.9
20260506000644 46 174 12.2 22.6 0.00 0.00 0.00 63 847.9
20260506000445 46 176 13.0 20.9 0.00 0.00 0.00 63 847.9
20260506000342 46 172 13.0 21.7 0.00 0.00 0.00 63 847.9
20260506000243 46 180 12.2 21.7 0.00 0.00 0.00 63 847.9
20260506000043 46 182 13.0 21.7 0.00 0.00 0.00 63 848.0
20260505235839 46 176 12.2 21.7 0.00 0.00 0.00 63 848.1
20260505235640 46 173 13.0 24.3 0.00 0.00 0.00 63 848.1
20260505235440 46 169 13.9 21.7 0.00 0.00 0.00 63 848.1
20260505235339 46 172 12.2 21.7 0.00 0.00 0.00 63 848.2
20260505235240 46 172 10.4 21.7 0.00 0.00 0.00 63 848.2
20260505235040 46 171 11.3 17.4 0.00 0.00 0.00 63 848.2
20260505234836 46 178 13.0 20.9 0.00 0.00 0.00 63 848.3
20260505234438 46 174 12.2 22.6 0.00 0.00 0.00 63 848.3
20260505234336 46 171 11.3 22.6 0.00 0.00 0.00 63 848.3
20260505234238 46 178 11.3 22.6 0.00 0.00 0.00 63 848.3
20260505234037 47 184 11.3 18.2 0.00 0.00 0.00 63 848.2
20260505233833 47 179 12.2 24.3 0.00 0.00 0.00 62 848.1
20260505233434 47 175 12.2 19.1 0.00 0.00 0.00 63 848.1
20260505233333 47 173 12.2 22.6 0.00 0.00 0.00 63 848.1
20260505233234 47 173 13.0 22.6 0.00 0.00 0.00 63 848.1
20260505233034 47 178 13.9 27.8 0.00 0.00 0.00 62 848.1
20260505232830 46 186 13.9 27.8 0.00 0.00 0.00 62 848.1
20260505232432 46 178 13.0 26.1 0.00 0.00 0.00 63 848.2
20260505232331 46 182 13.0 26.1 0.00 0.00 0.00 63 848.2
20260505232231 46 183 12.2 21.7 0.00 0.00 0.00 62 848.2
20260505232030 46 172 13.0 23.5 0.00 0.00 0.00 63 848.3
20260505231827 46 174 12.2 23.5 0.00 0.00 0.00 63 848.2
20260505231428 46 174 13.9 21.7 0.00 0.00 0.00 63 848.3
20260505231327 46 176 13.0 21.7 0.00 0.00 0.00 63 848.4
20260505231228 46 183 13.0 21.7 0.00 0.00 0.00 63 848.4
20260505231028 46 172 11.3 16.5 0.00 0.00 0.00 62 848.5
20260505230823 46 168 12.2 16.5 0.00 0.00 0.00 62 848.5
20260505230625 46 180 11.3 17.4 0.00 0.00 0.00 62 848.5
20260505230425 46 165 10.4 17.4 0.00 0.00 0.00 62 848.6
20260505230323 46 161 9.6 15.6 0.00 0.00 0.00 62 848.6
20260505230225 46 164 8.7 15.6 0.00 0.00 0.00 62 848.6
20260505230025 46 174 9.6 15.6 0.00 0.00 0.00 62 848.6
20260505225807 46 171 12.2 19.1 0.00 0.00 0.00 62 848.6
20260505225609 46 178 13.0 18.2 0.00 0.00 0.00 62 848.7
20260505225409 46 176 12.2 20.0 0.00 0.00 0.00 62 848.7
20260505225307 46 175 13.0 20.0 0.00 0.00 0.00 62 848.7
20260505225208 46 174 13.0 20.9 0.00 0.00 0.00 62 848.7
20260505225008 46 175 12.2 20.9 0.00 0.00 0.00 62 848.7
20260505224804 46 175 11.3 16.5 0.00 0.00 0.00 62 848.7
20260505224605 46 181 11.3 21.7 0.00 0.00 0.00 62 848.8
20260505224405 46 182 12.2 21.7 0.00 0.00 0.00 62 848.9
20260505224304 46 180 13.0 21.7 0.00 0.00 0.00 62 848.9
20260505224205 46 177 12.2 21.7 0.00 0.00 0.00 62 848.9
20260505224005 46 172 10.4 16.5 0.00 0.00 0.00 62 848.9
20260505223801 46 169 10.4 19.1 0.00 0.00 0.00 62 848.9
20260505223603 46 176 11.3 16.5 0.00 0.00 0.00 62 848.9
20260505223403 46 179 13.0 27.8 0.00 0.00 0.00 62 848.9
20260505223301 46 180 13.0 27.8 0.00 0.00 0.00 62 848.9
20260505223002 47 178 11.3 17.4 0.00 0.00 0.00 62 849.0
20260505222759 47 177 10.4 16.5 0.00 0.00 0.00 62 849.0
20260505222559 47 172 10.4 16.5 0.00 0.00 0.00 62 849.0
20260505222400 47 172 10.4 15.6 0.00 0.00 0.00 62 849.0
20260505222259 47 169 10.4 16.5 0.00 0.00 0.00 62 849.0
20260505222200 47 172 10.4 16.5 0.00 0.00 0.00 62 849.0
20260505221959 47 174 12.2 22.6 0.00 0.00 0.00 62 849.0
20260505221756 47 170 12.2 22.6 0.00 0.00 0.00 62 849.0
20260505221558 47 167 11.3 19.1 0.00 0.00 0.00 62 849.0
20260505221358 47 170 12.2 19.1 0.00 0.00 0.00 62 849.0
20260505221256 47 176 11.3 17.4 0.00 0.00 0.00 62 849.1
20260505221157 47 174 11.3 17.4 0.00 0.00 0.00 62 849.1
20260505220956 47 171 9.6 17.4 0.00 0.00 0.00 62 849.1
20260505220753 47 171 10.4 20.9 0.00 0.00 0.00 62 849.1
20260505220554 47 172 11.3 20.9 0.00 0.00 0.00 62 849.2
20260505220353 46 177 10.4 20.9 0.00 0.00 0.00 62 849.3
20260505220253 46 178 10.4 20.9 0.00 0.00 0.00 62 849.3
20260505220150 46 176 9.6 16.5 0.00 0.00 0.00 62 849.3
20260505215950 46 176 8.7 19.1 0.00 0.00 0.00 62 849.3
20260505215746 46 172 7.8 13.0 0.00 0.00 0.00 62 849.4
20260505215548 46 168 7.8 10.4 0.00 0.00 0.00 62 849.4
20260505215348 46 167 7.8 13.9 0.00 0.00 0.00 62 849.4
20260505215246 46 173 7.8 13.9 0.00 0.00 0.00 62 849.5
20260505215148 46 172 8.7 13.9 0.00 0.00 0.00 62 849.5
20260505214948 46 168 7.8 11.3 0.00 0.00 0.00 62 849.5
20260505214744 47 171 7.0 13.0 0.00 0.00 0.00 61 849.5
20260505214545 47 169 7.0 13.0 0.00 0.00 0.00 61 849.5
20260505214345 47 166 7.0 12.2 0.00 0.00 0.00 61 849.5
20260505214244 47 175 7.0 9.6 0.00 0.00 0.00 61 849.5
20260505214145 47 173 7.0 10.4 0.00 0.00 0.00 61 849.5
20260505213944 47 170 7.0 13.0 0.00 0.00 0.00 61 849.5
20260505213741 47 171 7.0 12.2 0.00 0.00 0.00 61 849.4
20260505213542 47 180 7.8 13.9 0.00 0.00 0.00 61 849.4
20260505213341 47 175 7.0 11.3 0.00 0.00 0.00 61 849.6
20260505213241 47 177 7.0 14.8 0.00 0.00 0.00 61 849.6
20260505213141 47 180 7.8 20.9 0.00 0.00 0.00 61 849.6
20260505212941 47 177 7.8 20.9 0.00 0.00 0.00 61 849.8
20260505212738 47 178 7.0 10.4 0.00 0.00 0.00 61 850.0
20260505212539 47 170 7.0 11.3 0.00 0.00 0.00 61 850.1
20260505212338 47 173 8.7 18.2 0.00 0.00 0.00 61 850.2
20260505212238 47 172 8.7 18.2 0.00 0.00 0.00 61 850.2
20260505212138 47 171 7.8 18.2 0.00 0.00 0.00 61 850.2
20260505211938 47 174 6.1 13.0 0.00 0.00 0.00 61 850.2
20260505211734 47 177 7.8 11.3 0.00 0.00 0.00 61 850.1
20260505211535 47 173 7.8 13.9 0.00 0.00 0.00 60 850.2
20260505211335 47 160 7.8 13.9 0.00 0.00 0.00 60 850.2
20260505211234 47 161 7.8 13.9 0.00 0.00 0.00 60 850.2
20260505211135 47 162 7.8 13.9 0.00 0.00 0.00 60 850.2
20260505210934 47 162 7.0 10.4 0.00 0.00 0.00 60 850.3
20260505210731 47 170 7.8 15.6 0.00 0.00 0.00 60 850.2
20260505210532 47 173 7.0 15.6 0.00 0.00 0.00 60 850.3
20260505210332 47 180 6.1 12.2 0.00 0.00 0.00 60 850.3
20260505210231 47 185 7.0 12.2 0.00 0.00 0.00 60 850.3
20260505210131 47 182 7.0 12.2 0.00 0.00 0.00 60 850.3
20260505205728 47 169 6.1 11.3 0.00 0.00 0.00 59 850.4